📊 Raw Sensor Data
Showing records 32426 to 32450 of 84,699 total
| ID | Distance (ft) | Battery V | Battery A | Int Temp (°F) | Int Humid (%) | Ext Temp (°F) | Solar V | RSSI | SNR | Time Stamp |
|---|---|---|---|---|---|---|---|---|---|---|
| 52286 | 14.9 | 3.97 | -5 | 84 | 55 | 82 | 0.50 | -72 | 8 | 09/17/2025 07:30 PM |
| 52285 | 14.9 | 4.02 | -10 | 88 | 56 | 84 | 2.10 | -72 | 8 | 09/17/2025 07:15 PM |
| 52284 | 15.0 | 4.04 | 0 | 93 | 56 | 87 | 4.60 | -73 | 7 | 09/17/2025 07:00 PM |
| 52283 | 15.0 | 4.01 | 10 | 101 | 52 | 93 | 4.50 | -72 | 8 | 09/17/2025 06:45 PM |
| 52282 | 15.0 | 4.04 | 18 | 104 | 51 | 97 | 4.60 | -72 | 9 | 09/17/2025 06:30 PM |
| 52281 | 15.0 | 4.08 | 25 | 107 | 50 | 99 | 4.60 | -73 | 8 | 09/17/2025 06:15 PM |
| 52280 | 15.0 | 4.02 | 5 | 109 | 49 | 99 | 5.10 | -73 | 7 | 09/17/2025 06:00 PM |
| 52279 | 15.1 | 4.02 | 5 | 111 | 48 | 101 | 5.10 | -74 | 8 | 09/17/2025 05:45 PM |
| 52278 | 15.2 | 4.02 | 0 | 111 | 47 | 103 | 5.10 | -74 | 8 | 09/17/2025 05:30 PM |
| 52277 | 15.2 | 4.02 | 0 | 112 | 46 | 97 | 5.20 | -75 | 8 | 09/17/2025 05:15 PM |
| 52276 | 15.3 | 4.02 | 5 | 112 | 46 | 103 | 5.10 | -74 | 9 | 09/17/2025 05:00 PM |
| 52275 | 15.1 | 4.11 | 0 | 111 | 46 | 99 | 5.10 | -74 | 8 | 09/17/2025 04:45 PM |
| 52274 | 15.2 | 4.02 | 0 | 112 | 45 | 98 | 5.20 | -75 | 8 | 09/17/2025 04:30 PM |
| 52273 | 15.2 | 4.02 | 5 | 113 | 44 | 100 | 5.10 | -73 | 8 | 09/17/2025 04:15 PM |
| 52272 | 15.2 | 4.01 | 5 | 113 | 44 | 101 | 5.10 | -74 | 8 | 09/17/2025 04:00 PM |
| 52271 | 15.2 | 4.01 | 0 | 111 | 44 | 99 | 5.10 | -75 | 8 | 09/17/2025 03:45 PM |
| 52270 | 15.2 | 4.01 | 5 | 111 | 43 | 100 | 5.10 | -75 | 8 | 09/17/2025 03:30 PM |
| 52269 | 15.2 | 4.01 | 0 | 110 | 43 | 99 | 5.10 | -72 | 8 | 09/17/2025 03:15 PM |
| 52268 | 15.2 | 4.01 | 0 | 108 | 44 | 97 | 5.10 | -74 | 8 | 09/17/2025 03:00 PM |
| 52267 | 15.2 | 4.01 | 0 | 108 | 44 | 96 | 5.10 | -74 | 7 | 09/17/2025 02:45 PM |
| 52266 | 15.1 | 4.01 | 5 | 108 | 43 | 98 | 5.10 | -73 | 8 | 09/17/2025 02:30 PM |
| 52265 | 15.1 | 4.01 | 0 | 108 | 42 | 96 | 5.10 | -73 | 8 | 09/17/2025 02:15 PM |
| 52264 | 15.2 | 4.01 | 0 | 107 | 42 | 96 | 5.10 | -72 | 8 | 09/17/2025 02:00 PM |
| 52263 | 15.1 | 4.01 | 0 | 105 | 42 | 95 | 5.10 | -74 | 8 | 09/17/2025 01:45 PM |
| 52262 | 15.1 | 4.01 | 0 | 104 | 42 | 94 | 5.10 | -75 | 8 | 09/17/2025 01:30 PM |